Stündliche Wetter Warszawa

Heute, 21 Oktober, Mittwoch

Zeit Temperatur Niederschläge Wind Luftdruck Luftfeuchtigkeit
00:00 +8°C° 0 mm 3 m/S 750 mmHg 75%
01:00 +8°C° 0 mm 3 m/S 750 mmHg 75%
02:00 +7°C° 0 mm 3 m/S 750 mmHg 75%
03:00 +7°C° 0 mm 3 m/S 750 mmHg 76%
04:00 +7°C° 0 mm 3 m/S 749 mmHg 76%
05:00 +7°C° 0 mm 3 m/S 749 mmHg 76%
06:00 +7°C° 0 mm 3 m/S 749 mmHg 75%
07:00 +6°C° 0 mm 4 m/S 749 mmHg 72%
08:00 +7°C° 0 mm 4 m/S 749 mmHg 69%
09:00 +10°C° 0 mm 4 m/S 749 mmHg 66%
10:00 +10°C° 0 mm 5 m/S 749 mmHg 63%
11:00 +12°C° 0 mm 4 m/S 749 mmHg 60%
12:00 +13°C° 0 mm 4 m/S 748 mmHg 57%
13:00 +15°C° 0 mm 4 m/S 748 mmHg 57%
14:00 +14°C° 0 mm 3 m/S 748 mmHg 60%
15:00 +13°C° 0 mm 3 m/S 747 mmHg 64%
16:00 +14°C° 0 mm 2 m/S 747 mmHg 67%
17:00 +12°C° 0 mm 3 m/S 747 mmHg 69%
18:00 +11°C° 0 mm 3 m/S 747 mmHg 71%
19:00 +10°C° 0 mm 4 m/S 748 mmHg 73%
20:00 +10°C° 0 mm 4 m/S 748 mmHg 75%
21:00 +10°C° 0 mm 3 m/S 748 mmHg 77%
22:00 +9°C° 0 mm 3 m/S 748 mmHg 79%
23:00 +9°C° 0 mm 3 m/S 748 mmHg 80%

Morgen, 22 Oktober, Donnerstag

Zeit Temperatur Niederschläge Wind Luftdruck Luftfeuchtigkeit
00:00 +9°C° 0 mm 3 m/S 748 mmHg 81%
01:00 +9°C° 0 mm 3 m/S 748 mmHg 81%
02:00 +9°C° 0 mm 3 m/S 748 mmHg 82%
03:00 +8°C° 0 mm 3 m/S 748 mmHg 82%
04:00 +8°C° 0 mm 3 m/S 748 mmHg 83%
05:00 +8°C° 0 mm 3 m/S 749 mmHg 83%
06:00 +8°C° 0 mm 3 m/S 749 mmHg 83%
07:00 +8°C° 0 mm 4 m/S 749 mmHg 83%
08:00 +11°C° 0 mm 4 m/S 749 mmHg 77%
09:00 +12°C° 0 mm 4 m/S 749 mmHg 70%
10:00 +14°C° 0 mm 4 m/S 749 mmHg 64%
11:00 +17°C° 0 mm 4 m/S 749 mmHg 62%
12:00 +18°C° 0 mm 4 m/S 749 mmHg 59%
13:00 +19°C° 0 mm 4 m/S 749 mmHg 57%
14:00 +18°C° 0 mm 3 m/S 749 mmHg 61%
15:00 +17°C° 0 mm 3 m/S 749 mmHg 66%
16:00 +16°C° 0 mm 2 m/S 748 mmHg 70%
17:00 +15°C° 0 mm 2 m/S 749 mmHg 73%
18:00 +14°C° 0 mm 2 m/S 749 mmHg 75%
19:00 +13°C° 0 mm 2 m/S 749 mmHg 77%
20:00 +13°C° 0 mm 2 m/S 749 mmHg 78%
21:00 +13°C° 0 mm 2 m/S 749 mmHg 79%
22:00 +13°C° 0 mm 2 m/S 749 mmHg 81%
23:00 +12°C° 0 mm 2 m/S 749 mmHg 81%

übermorgen, 23 Oktober, Freitag

Zeit Temperatur Niederschläge Wind Luftdruck Luftfeuchtigkeit
00:00 +12°C° 0 mm 2 m/S 749 mmHg 81%
01:00 +12°C° 0 mm 2 m/S 749 mmHg 81%
02:00 +12°C° 0 mm 2 m/S 748 mmHg 82%
03:00 +10°C° 0 mm 2 m/S 748 mmHg 82%
04:00 +10°C° 0 mm 2 m/S 748 mmHg 83%
05:00 +10°C° 0 mm 2 m/S 748 mmHg 84%
06:00 +10°C° 0 mm 2 m/S 747 mmHg 84%
07:00 +10°C° 0 mm 3 m/S 747 mmHg 84%
08:00 +11°C° 0 mm 3 m/S 747 mmHg 80%
09:00 +12°C° 0 mm 3 m/S 747 mmHg 75%
10:00 +14°C° 0 mm 3 m/S 746 mmHg 71%
11:00 +16°C° 0 mm 3 m/S 746 mmHg 68%
12:00 +16°C° 0 mm 3 m/S 746 mmHg 66%
13:00 +17°C° 0 mm 3 m/S 745 mmHg 64%
14:00 +17°C° 0 mm 2 m/S 745 mmHg 67%
15:00 +16°C° 0 mm 2 m/S 745 mmHg 71%
16:00 +15°C° 0 mm 2 m/S 745 mmHg 74%
17:00 +15°C° 0 mm 2 m/S 745 mmHg 76%
18:00 +14°C° 0 mm 2 m/S 745 mmHg 78%
19:00 +14°C° 0 mm 2 m/S 745 mmHg 80%
20:00 +14°C° 0 mm 2 m/S 745 mmHg 81%
21:00 +13°C° 0 mm 2 m/S 745 mmHg 81%
22:00 +13°C° 0 mm 2 m/S 745 mmHg 82%
23:00 +13°C° 0 mm 2 m/S 745 mmHg 83%

24 Oktober, Samstag

Zeit Temperatur Niederschläge Wind Luftdruck Luftfeuchtigkeit
00:00 +12°C° 0 mm 2 m/S 745 mmHg 85%
01:00 +12°C° 0 mm 2 m/S 745 mmHg 87%
02:00 +12°C° 0 mm 2 m/S 745 mmHg 86%
03:00 +12°C° 0 mm 2 m/S 744 mmHg 86%
04:00 +12°C° 0 mm 2 m/S 744 mmHg 86%
05:00 +11°C° 0.4 mm 3 m/S 744 mmHg 87%
06:00 +11°C° 0.4 mm 3 m/S 744 mmHg 89%
07:00 +11°C° 0.4 mm 3 m/S 744 mmHg 90%
08:00 +11°C° 1.2 mm 4 m/S 745 mmHg 91%
09:00 +12°C° 1.2 mm 4 m/S 745 mmHg 92%
10:00 +12°C° 1.2 mm 4 m/S 745 mmHg 93%
11:00 +13°C° 0.2 mm 5 m/S 745 mmHg 89%
12:00 +14°C° 0.2 mm 5 m/S 745 mmHg 85%
13:00 +15°C° 0.2 mm 5 m/S 746 mmHg 81%
14:00 +14°C° 0.2 mm 5 m/S 746 mmHg 82%
15:00 +14°C° 0.2 mm 4 m/S 746 mmHg 82%
16:00 +14°C° 0.2 mm 4 m/S 746 mmHg 83%
17:00 +13°C° 0 mm 4 m/S 747 mmHg 84%
18:00 +12°C° 0 mm 4 m/S 747 mmHg 86%
19:00 +11°C° 0 mm 4 m/S 748 mmHg 88%
20:00 +11°C° 0 mm 3 m/S 748 mmHg 88%
21:00 +10°C° 0 mm 3 m/S 749 mmHg 89%
22:00 +10°C° 0 mm 3 m/S 749 mmHg 89%
23:00 +9°C° 0 mm 3 m/S 749 mmHg 89%

25 Oktober, Sonntag

Zeit Temperatur Niederschläge Wind Luftdruck Luftfeuchtigkeit
00:00 +9°C° 0 mm 3 m/S 749 mmHg 89%
01:00 +8°C° 0 mm 3 m/S 749 mmHg 89%
02:00 +8°C° 0 mm 3 m/S 750 mmHg 90%
03:00 +8°C° 0 mm 2 m/S 750 mmHg 90%
04:00 +7°C° 0 mm 2 m/S 750 mmHg 91%
05:00 +7°C° 0 mm 2 m/S 750 mmHg 91%
06:00 +8°C° 0 mm 1 m/S 750 mmHg 91%
07:00 +8°C° 0 mm 1 m/S 750 mmHg 91%
08:00 +9°C° 0 mm 1 m/S 750 mmHg 84%
09:00 +11°C° 0 mm 1 m/S 750 mmHg 77%
10:00 +12°C° 0 mm 1 m/S 750 mmHg 70%
11:00 +13°C° 0 mm 1 m/S 750 mmHg 66%
12:00 +14°C° 0 mm 1 m/S 749 mmHg 62%
13:00 +14°C° 0 mm 1 m/S 749 mmHg 58%
14:00 +14°C° 0 mm 1 m/S 749 mmHg 62%
15:00 +13°C° 0 mm 1 m/S 749 mmHg 65%
16:00 +12°C° 0 mm 2 m/S 748 mmHg 69%
17:00 +10°C° 0 mm 2 m/S 748 mmHg 72%
18:00 +10°C° 0 mm 2 m/S 749 mmHg 74%
19:00 +9°C° 0 mm 2 m/S 749 mmHg 77%
20:00 +8°C° 0 mm 3 m/S 749 mmHg 79%
21:00 +8°C° 0 mm 3 m/S 749 mmHg 80%
22:00 +8°C° 0 mm 3 m/S 749 mmHg 82%
23:00 +8°C° 0 mm 3 m/S 748 mmHg 84%

26 Oktober, Montag

Zeit Temperatur Niederschläge Wind Luftdruck Luftfeuchtigkeit
00:00 +7°C° 0 mm 3 m/S 748 mmHg 86%
01:00 +7°C° 0 mm 3 m/S 748 mmHg 87%
02:00 +7°C° 0 mm 3 m/S 748 mmHg 88%
03:00 +7°C° 0 mm 3 m/S 748 mmHg 89%
04:00 +7°C° 0 mm 3 m/S 747 mmHg 90%
05:00 +7°C° 0 mm 3 m/S 747 mmHg 90%
06:00 +7°C° 0 mm 3 m/S 747 mmHg 89%
07:00 +7°C° 0 mm 3 m/S 747 mmHg 89%
08:00 +8°C° 0 mm 4 m/S 747 mmHg 82%
09:00 +11°C° 0 mm 4 m/S 747 mmHg 76%
10:00 +13°C° 0 mm 5 m/S 747 mmHg 70%
11:00 +15°C° 0 mm 5 m/S 747 mmHg 67%
12:00 +16°C° 0 mm 5 m/S 747 mmHg 64%
13:00 +17°C° 0 mm 5 m/S 746 mmHg 61%
14:00 +17°C° 0 mm 4 m/S 746 mmHg 66%
15:00 +15°C° 0 mm 4 m/S 746 mmHg 71%
16:00 +14°C° 0 mm 4 m/S 746 mmHg 76%
17:00 +13°C° 0 mm 4 m/S 746 mmHg 79%
18:00 +12°C° 0 mm 3 m/S 746 mmHg 83%
19:00 +11°C° 0 mm 3 m/S 746 mmHg 86%
20:00 +10°C° 0 mm 3 m/S 746 mmHg 87%
21:00 +10°C° 0 mm 3 m/S 746 mmHg 88%
22:00 +10°C° 0 mm 3 m/S 746 mmHg 89%
23:00 +9°C° 0 mm 3 m/S 746 mmHg 90%

27 Oktober, Dienstag

Zeit Temperatur Niederschläge Wind Luftdruck Luftfeuchtigkeit
00:00 +9°C° 0 mm 3 m/S 746 mmHg 90%
01:00 +9°C° 0 mm 3 m/S 746 mmHg 91%
02:00 +9°C° 0 mm 3 m/S 746 mmHg 90%
03:00 +9°C° 0 mm 3 m/S 746 mmHg 89%
04:00 +9°C° 0 mm 3 m/S 746 mmHg 88%
05:00 +9°C° 0 mm 3 m/S 746 mmHg 88%
06:00 +9°C° 0 mm 3 m/S 746 mmHg 89%
07:00 +9°C° 0 mm 3 m/S 747 mmHg 89%
08:00 +11°C° 0 mm 3 m/S 747 mmHg 82%
09:00 +13°C° 0 mm 4 m/S 747 mmHg 76%
10:00 +15°C° 0 mm 5 m/S 747 mmHg 69%
11:00 +15°C° 0 mm 4 m/S 747 mmHg 68%
12:00 +17°C° 0 mm 4 m/S 747 mmHg 66%
13:00 +17°C° 0 mm 4 m/S 747 mmHg 65%
14:00 +16°C° 0.1 mm 3 m/S 747 mmHg 69%
15:00 +16°C° 0.1 mm 3 m/S 747 mmHg 73%
16:00 +15°C° 0.1 mm 2 m/S 748 mmHg 78%
17:00 +14°C° 0 mm 2 m/S 748 mmHg 81%
18:00 +13°C° 0 mm 2 m/S 748 mmHg 84%
19:00 +12°C° 0 mm 2 m/S 748 mmHg 87%
20:00 +12°C° 0 mm 1 m/S 749 mmHg 88%
21:00 +11°C° 0 mm 1 m/S 749 mmHg 88%
22:00 +11°C° 0 mm 1 m/S 749 mmHg 89%
23:00 +11°C° 0 mm 1 m/S 749 mmHg 89%
Mehr zeigen

Wir brauchen deine Erlaubnis

Meteoprog und unser Service Anbieter werden persönliche Daten aufbewahren, so wie Cookies, Geräte Bezeichnung oder ähnliche Technologien von deinem Gerät und Prozess, so wie Persönliche Daten Inhalte und Werbungen, genauso wie social Media und den Verkehr zu analysieren.

  • Aufbewahrung und/oder Zugang zu deiner Geräte Informationen.

    Cookies, Geräte Bezeichnung oder andere Informationen, können aufbewahrt oder Zugang zu deinem Gerät erhalten, für den Grund, der oben angegeben wird.

  • Personalisierte Werbung und Inhalte, Messungen, Einblick in das Publikum und Produkt Entwicklung.

    Werbungen und Inhalte können personalisiert werden, basierend auf ein Profil. Mehr Daten können besser personalisierte Werbungen und Inhalte hinzufügen. Werbung und Inhalte können gezeigt und gemessen werden. Einblicke über das Publikum, welche die Werbung gesehen haben und den Inhalt, können abgeleitet werden. So wie Daten können genutzt werden, um es zu verbessern oder die Benutzer Erfahrung zu verbessern das System und die Software.

Wenn du “Ich stimme zu” klickst, erlaubst du uns, die Cookies zu benutzen die Geräte Bezeichnung, den Web oder ähnliche Technologien zu benutzen. Deine Settings, können in deinem Gerät bei deinem Browser geändert werden.

Für den bestimmten Zweck, berechtigten Interessen beruhen darauf, mehr als auf den Inhalt. Du kannst mehr darüber in unseren Privaten und Cookie Politik lesen.